Time,TemperatureF,DewpointF,PressureIn,WindDirection,WindDirectionDegrees,WindSpeedMPH,WindSpeedGustMPH,Humidity,HourlyPrecipIn,Conditions,Clouds,dailyrainin,SoftwareType,DateUTC
2013-03-16 00:02:00,44.0,43.0,29.53,WSW,246,12.0,26.0,95,0.00,,,0.24,,2013-03-16 00:02:00,
2013-03-16 00:12:00,44.0,43.0,29.53,WSW,246,12.0,26.0,95,0.00,,,0.24,,2013-03-16 00:12:00,
2013-03-16 00:22:00,44.0,43.0,29.52,WSW,248,12.0,20.0,95,0.00,,,0.24,,2013-03-16 00:22:00,
2013-03-16 00:32:00,44.0,43.0,29.52,WSW,246,9.0,16.0,95,0.00,,,0.24,,2013-03-16 00:32:00,
2013-03-16 00:42:00,44.0,43.0,29.52,WSW,246,9.0,16.0,95,0.00,,,0.24,,2013-03-16 00:42:00,
2013-03-16 00:52:00,44.0,43.0,29.52,WSW,239,12.0,16.0,95,0.00,,,0.24,,2013-03-16 00:52:00,
2013-03-16 01:01:00,44.0,43.0,29.51,WSW,245,9.0,20.0,96,0.00,,,0.24,,2013-03-16 01:01:00,
2013-03-16 01:12:00,44.0,43.0,29.51,WSW,245,9.0,20.0,96,0.00,,,0.24,,2013-03-16 01:12:00,
2013-03-16 01:21:00,44.0,43.0,29.51,WSW,245,9.0,20.0,96,0.00,,,0.24,,2013-03-16 01:21:00,
2013-03-16 01:32:00,44.0,42.0,29.50,WSW,258,12.0,22.0,93,0.00,,,0.24,,2013-03-16 01:32:00,
2013-03-16 01:42:00,44.0,42.0,29.50,WSW,258,12.0,22.0,93,0.00,,,0.24,,2013-03-16 01:42:00,
2013-03-16 01:52:00,44.0,42.0,29.50,WSW,240,12.0,26.0,93,0.00,,,0.24,,2013-03-16 01:52:00,
2013-03-16 02:02:00,44.0,42.0,29.49,WSW,246,12.0,28.0,93,0.00,,,0.24,,2013-03-16 02:02:00,
2013-03-16 02:11:00,44.0,42.0,29.49,WSW,246,12.0,28.0,93,0.00,,,0.24,,2013-03-16 02:11:00,
2013-03-16 02:22:00,44.0,42.0,29.49,SW,236,12.0,26.0,93,0.00,,,0.24,,2013-03-16 02:22:00,
2013-03-16 02:32:00,44.0,42.0,29.48,WSW,242,9.0,20.0,93,0.00,,,0.24,,2013-03-16 02:32:00,
2013-03-16 02:42:00,44.0,42.0,29.48,WSW,242,9.0,20.0,93,0.00,,,0.24,,2013-03-16 02:42:00,
2013-03-16 02:52:00,44.0,42.0,29.48,WSW,238,12.0,28.0,92,0.00,,,0.24,,2013-03-16 02:52:00,
2013-03-16 03:02:00,44.0,42.0,29.47,SW,235,12.0,20.0,91,0.00,,,0.24,,2013-03-16 03:02:00,
2013-03-16 03:11:00,44.0,42.0,29.47,SW,235,12.0,20.0,91,0.00,,,0.24,,2013-03-16 03:11:00,
2013-03-16 03:21:00,44.0,42.0,29.47,WSW,238,12.0,24.0,91,0.00,,,0.24,,2013-03-16 03:21:00,
2013-03-16 03:32:00,44.0,42.0,29.46,SW,232,12.0,30.0,91,0.00,,,0.24,,2013-03-16 03:32:00,
2013-03-16 03:42:00,44.0,42.0,29.46,SW,232,12.0,30.0,91,0.00,,,0.24,,2013-03-16 03:42:00,
2013-03-16 03:52:00,44.0,42.0,29.46,WSW,246,12.0,22.0,91,0.00,,,0.24,,2013-03-16 03:52:00,
2013-03-16 04:02:00,44.0,42.0,29.46,WSW,243,15.0,24.0,91,0.00,,,0.24,,2013-03-16 04:02:00,
2013-03-16 04:12:00,44.0,42.0,29.46,WSW,243,15.0,24.0,91,0.00,,,0.24,,2013-03-16 04:12:00,
2013-03-16 04:22:00,44.0,42.0,29.45,WSW,243,12.0,22.0,91,0.00,,,0.24,,2013-03-16 04:22:00,
2013-03-16 04:32:00,44.0,42.0,29.44,WSW,251,12.0,28.0,91,0.00,,,0.24,,2013-03-16 04:32:00,
2013-03-16 04:42:00,44.0,42.0,29.44,WSW,251,12.0,28.0,91,0.00,,,0.24,,2013-03-16 04:42:00,
2013-03-16 04:53:00,44.0,42.0,29.44,WSW,251,12.0,28.0,91,0.00,,,0.24,,2013-03-16 04:53:00,
2013-03-16 05:02:00,44.0,42.0,29.44,WSW,241,15.0,30.0,91,0.00,,,0.23,,2013-03-16 05:02:00,
2013-03-16 05:12:00,44.0,42.0,29.44,WSW,241,15.0,30.0,91,0.00,,,0.23,,2013-03-16 05:12:00,
2013-03-16 05:21:00,44.0,42.0,29.44,WSW,241,15.0,30.0,91,0.00,,,0.23,,2013-03-16 05:21:00,
2013-03-16 05:32:00,43.0,41.0,29.43,WSW,240,15.0,24.0,92,0.01,,,0.24,,2013-03-16 05:32:00,
2013-03-16 05:42:00,43.0,41.0,29.43,WSW,240,15.0,24.0,92,0.01,,,0.24,,2013-03-16 05:42:00,
2013-03-16 05:52:00,43.0,41.0,29.42,WSW,244,12.0,22.0,91,0.01,,,0.24,,2013-03-16 05:52:00,
2013-03-16 06:02:00,43.0,41.0,29.42,WSW,246,15.0,30.0,92,0.02,,,0.24,,2013-03-16 06:02:00,
2013-03-16 06:12:00,43.0,41.0,29.42,WSW,246,15.0,30.0,92,0.02,,,0.24,,2013-03-16 06:12:00,
2013-03-16 06:21:00,43.0,41.0,29.41,WSW,238,12.0,24.0,93,0.01,,,0.23,,2013-03-16 06:21:00,
2013-03-16 06:32:00,43.0,41.0,29.41,SW,223,12.0,24.0,93,0.01,,,0.22,,2013-03-16 06:32:00,
2013-03-16 06:42:00,43.0,41.0,29.41,SW,223,12.0,24.0,93,0.01,,,0.22,,2013-03-16 06:42:00,
2013-03-16 06:52:00,43.0,41.0,29.41,WSW,237,12.0,24.0,93,0.01,,,0.22,,2013-03-16 06:52:00,
2013-03-16 07:01:00,43.0,41.0,29.40,WSW,243,12.0,18.0,93,0.00,,,0.22,,2013-03-16 07:01:00,
2013-03-16 07:11:00,43.0,41.0,29.40,WSW,243,12.0,18.0,93,0.00,,,0.22,,2013-03-16 07:11:00,
2013-03-16 07:22:00,43.0,41.0,29.40,WSW,240,9.0,20.0,93,0.01,,,0.22,,2013-03-16 07:22:00,
2013-03-16 07:32:00,43.0,41.0,29.40,SW,226,12.0,24.0,94,0.02,,,0.23,,2013-03-16 07:32:00,
2013-03-16 07:42:00,43.0,41.0,29.40,SW,226,12.0,24.0,94,0.02,,,0.23,,2013-03-16 07:42:00,
2013-03-16 07:52:00,43.0,41.0,29.39,WSW,247,12.0,24.0,94,0.02,,,0.23,,2013-03-16 07:52:00,
2013-03-16 08:02:00,43.0,41.0,29.39,West,259,12.0,22.0,94,0.03,,,0.24,,2013-03-16 08:02:00,
2013-03-16 08:12:00,43.0,41.0,29.39,West,259,12.0,22.0,94,0.03,,,0.24,,2013-03-16 08:12:00,
2013-03-16 08:22:00,43.0,41.0,29.39,WSW,243,15.0,24.0,94,0.02,,,0.24,,2013-03-16 08:22:00,
2013-03-16 08:41:00,43.0,41.0,29.39,SW,223,15.0,26.0,94,0.03,,,0.25,,2013-03-16 08:41:00,
2013-03-16 08:52:00,43.0,41.0,29.39,WSW,237,15.0,28.0,94,0.03,,,0.25,,2013-03-16 08:52:00,
2013-03-16 09:01:00,43.0,41.0,29.38,SW,232,15.0,28.0,93,0.02,,,0.25,,2013-03-16 09:01:00,
2013-03-16 09:11:00,43.0,41.0,29.38,SW,232,15.0,28.0,93,0.02,,,0.25,,2013-03-16 09:11:00,
2013-03-16 09:22:00,43.0,41.0,29.38,SW,232,15.0,28.0,93,0.02,,,0.25,,2013-03-16 09:22:00,
2013-03-16 09:32:00,43.0,41.0,29.37,SW,228,15.0,28.0,93,0.01,,,0.26,,2013-03-16 09:32:00,
2013-03-16 09:42:00,43.0,41.0,29.37,SW,228,15.0,28.0,93,0.01,,,0.26,,2013-03-16 09:42:00,
2013-03-16 09:53:00,43.0,41.0,29.37,WSW,247,12.0,30.0,94,0.03,,,0.28,,2013-03-16 09:53:00,
2013-03-16 10:03:00,42.0,41.0,29.37,WSW,241,12.0,28.0,95,0.05,,,0.30,,2013-03-16 10:03:00,
2013-03-16 10:12:00,42.0,41.0,29.37,WSW,241,12.0,28.0,95,0.05,,,0.30,,2013-03-16 10:12:00,
2013-03-16 10:22:00,42.0,40.0,29.36,SW,232,12.0,28.0,94,0.06,,,0.31,,2013-03-16 10:22:00,
2013-03-16 10:32:00,42.0,40.0,29.36,SW,232,12.0,28.0,94,0.06,,,0.31,,2013-03-16 10:32:00,
2013-03-16 10:42:00,42.0,40.0,29.36,SW,232,12.0,28.0,94,0.06,,,0.31,,2013-03-16 10:42:00,
2013-03-16 10:52:00,42.0,40.0,29.36,SW,232,12.0,28.0,94,0.06,,,0.31,,2013-03-16 10:52:00,
2013-03-16 11:03:00,42.0,40.0,29.36,WSW,252,15.0,30.0,94,0.04,,,0.33,,2013-03-16 11:03:00,
2013-03-16 11:12:00,42.0,40.0,29.36,WSW,252,15.0,30.0,94,0.04,,,0.33,,2013-03-16 11:12:00,
2013-03-16 11:22:00,43.0,42.0,29.36,WSW,256,12.0,32.0,95,0.02,,,0.34,,2013-03-16 11:22:00,
2013-03-16 11:32:00,43.0,42.0,29.36,WSW,256,12.0,32.0,95,0.02,,,0.34,,2013-03-16 11:32:00,
2013-03-16 11:43:00,43.0,42.0,29.36,WSW,256,12.0,32.0,95,0.02,,,0.34,,2013-03-16 11:43:00,
2013-03-16 11:52:00,43.0,42.0,29.36,WSW,247,9.0,20.0,96,0.02,,,0.35,,2013-03-16 11:52:00,
2013-03-16 12:01:00,42.0,41.0,29.36,West,263,6.0,24.0,97,0.05,,,0.37,,2013-03-16 12:01:00,
2013-03-16 12:12:00,42.0,41.0,29.36,West,263,6.0,24.0,97,0.05,,,0.37,,2013-03-16 12:12:00,
2013-03-16 12:22:00,42.0,41.0,29.37,WSW,252,6.0,12.0,97,0.05,,,0.36,,2013-03-16 12:22:00,
2013-03-16 12:32:00,43.0,42.0,29.36,West,266,6.0,12.0,97,0.04,,,0.36,,2013-03-16 12:32:00,
2013-03-16 12:42:00,43.0,42.0,29.36,West,266,6.0,12.0,97,0.04,,,0.36,,2013-03-16 12:42:00,
2013-03-16 12:52:00,44.0,43.0,29.36,WSW,243,6.0,16.0,96,0.03,,,0.36,,2013-03-16 12:52:00,
2013-03-16 13:02:00,44.0,42.0,29.36,WSW,242,9.0,18.0,94,0.00,,,0.36,,2013-03-16 13:02:00,
2013-03-16 13:12:00,44.0,42.0,29.36,WSW,242,9.0,18.0,94,0.00,,,0.36,,2013-03-16 13:12:00,
2013-03-16 13:22:00,46.0,43.0,29.35,WSW,249,9.0,18.0,90,0.00,,,0.36,,2013-03-16 13:22:00,
2013-03-16 13:32:00,46.0,43.0,29.35,WSW,256,9.0,18.0,90,0.00,,,0.36,,2013-03-16 13:32:00,
2013-03-16 13:41:00,46.0,43.0,29.35,WSW,256,9.0,18.0,90,0.00,,,0.36,,2013-03-16 13:41:00,
2013-03-16 13:53:00,46.0,42.0,29.35,WSW,245,9.0,14.0,86,0.00,,,0.36,,2013-03-16 13:53:00,
2013-03-16 14:01:00,47.0,43.0,29.34,SW,229,9.0,20.0,85,0.00,,,0.36,,2013-03-16 14:01:00,
2013-03-16 14:11:00,47.0,43.0,29.34,SW,229,9.0,20.0,85,0.00,,,0.36,,2013-03-16 14:11:00,
2013-03-16 14:22:00,47.0,43.0,29.34,SW,229,9.0,20.0,85,0.00,,,0.36,,2013-03-16 14:22:00,
2013-03-16 14:32:00,47.0,41.0,29.33,SW,236,6.0,14.0,81,0.00,,,0.36,,2013-03-16 14:32:00,
2013-03-16 14:42:00,47.0,41.0,29.33,SW,236,6.0,14.0,81,0.00,,,0.36,,2013-03-16 14:42:00,
2013-03-16 14:52:00,47.0,42.0,29.33,SW,227,9.0,22.0,82,0.00,,,0.36,,2013-03-16 14:52:00,
2013-03-16 15:02:00,46.0,42.0,29.33,SW,220,6.0,14.0,85,0.00,,,0.35,,2013-03-16 15:02:00,
2013-03-16 15:12:00,46.0,42.0,29.33,SW,220,6.0,14.0,85,0.00,,,0.35,,2013-03-16 15:12:00,
2013-03-16 15:22:00,45.0,42.0,29.33,WSW,247,6.0,16.0,89,0.01,,,0.36,,2013-03-16 15:22:00,
2013-03-16 15:32:00,45.0,42.0,29.33,WSW,248,12.0,22.0,89,0.01,,,0.36,,2013-03-16 15:32:00,
2013-03-16 15:42:00,45.0,42.0,29.33,WSW,248,12.0,22.0,89,0.01,,,0.36,,2013-03-16 15:42:00,
2013-03-16 15:53:00,46.0,43.0,29.32,SW,234,9.0,16.0,89,0.01,,,0.36,,2013-03-16 15:53:00,
2013-03-16 16:02:00,46.0,42.0,29.32,SW,226,9.0,22.0,86,0.01,,,0.35,,2013-03-16 16:02:00,
2013-03-16 16:12:00,46.0,42.0,29.32,SW,226,9.0,22.0,86,0.01,,,0.35,,2013-03-16 16:12:00,
2013-03-16 16:22:00,46.0,42.0,29.32,SW,226,9.0,22.0,86,0.01,,,0.35,,2013-03-16 16:22:00,
2013-03-16 16:33:00,45.0,41.0,29.32,WSW,238,6.0,16.0,86,0.00,,,0.35,,2013-03-16 16:33:00,
2013-03-16 16:42:00,45.0,41.0,29.32,WSW,238,6.0,16.0,86,0.00,,,0.35,,2013-03-16 16:42:00,
2013-03-16 16:53:00,45.0,41.0,29.31,SW,231,6.0,20.0,87,0.00,,,0.35,,2013-03-16 16:53:00,
2013-03-16 17:02:00,45.0,41.0,29.31,SW,233,9.0,18.0,85,0.00,,,0.35,,2013-03-16 17:02:00,
2013-03-16 17:12:00,45.0,41.0,29.31,SW,233,9.0,18.0,85,0.00,,,0.35,,2013-03-16 17:12:00,
2013-03-16 17:22:00,44.0,40.0,29.31,WSW,241,12.0,20.0,85,0.00,,,0.35,,2013-03-16 17:22:00,
2013-03-16 17:32:00,44.0,40.0,29.31,SW,229,9.0,24.0,86,0.00,,,0.34,,2013-03-16 17:32:00,
2013-03-16 17:42:00,44.0,40.0,29.31,SW,229,9.0,24.0,86,0.00,,,0.34,,2013-03-16 17:42:00,
2013-03-16 17:53:00,44.0,40.0,29.31,SW,229,9.0,24.0,86,0.00,,,0.34,,2013-03-16 17:53:00,
2013-03-16 18:02:00,44.0,40.0,29.30,SW,217,6.0,18.0,87,0.00,,,0.31,,2013-03-16 18:02:00,
2013-03-16 18:12:00,44.0,40.0,29.30,SW,217,6.0,18.0,87,0.00,,,0.31,,2013-03-16 18:12:00,
2013-03-16 18:22:00,43.0,40.0,29.31,SW,221,6.0,14.0,88,0.00,,,0.30,,2013-03-16 18:22:00,
2013-03-16 18:32:00,43.0,40.0,29.30,SW,215,9.0,16.0,88,0.00,,,0.29,,2013-03-16 18:32:00,
2013-03-16 18:42:00,43.0,40.0,29.30,SW,215,9.0,16.0,88,0.00,,,0.29,,2013-03-16 18:42:00,
2013-03-16 18:52:00,43.0,40.0,29.30,SW,215,9.0,16.0,88,0.00,,,0.29,,2013-03-16 18:52:00,
2013-03-16 19:01:00,42.0,40.0,29.31,WSW,239,3.0,14.0,93,0.02,,,0.30,,2013-03-16 19:01:00,
2013-03-16 19:11:00,42.0,40.0,29.31,WSW,239,3.0,14.0,93,0.02,,,0.30,,2013-03-16 19:11:00,
2013-03-16 19:22:00,42.0,40.0,29.31,WSW,243,6.0,12.0,94,0.02,,,0.30,,2013-03-16 19:22:00,
2013-03-16 19:32:00,42.0,40.0,29.29,SSW,198,6.0,14.0,94,0.02,,,0.29,,2013-03-16 19:32:00,
2013-03-16 19:42:00,42.0,40.0,29.29,SSW,198,6.0,14.0,94,0.02,,,0.29,,2013-03-16 19:42:00,
2013-03-16 19:52:00,41.0,39.0,29.29,SW,220,6.0,14.0,94,0.02,,,0.28,,2013-03-16 19:52:00,
2013-03-16 20:02:00,41.0,39.0,29.28,SSW,213,3.0,12.0,94,0.00,,,0.27,,2013-03-16 20:02:00,
2013-03-16 20:12:00,41.0,39.0,29.28,SSW,213,3.0,12.0,94,0.00,,,0.27,,2013-03-16 20:12:00,
2013-03-16 20:21:00,42.0,40.0,29.28,SSW,200,6.0,12.0,94,0.00,,,0.26,,2013-03-16 20:21:00,
2013-03-16 20:32:00,42.0,40.0,29.28,SSW,200,6.0,12.0,94,0.00,,,0.26,,2013-03-16 20:32:00,
2013-03-16 20:42:00,42.0,40.0,29.28,SSW,200,6.0,12.0,94,0.00,,,0.26,,2013-03-16 20:42:00,
2013-03-16 20:52:00,42.0,41.0,29.27,SSW,196,6.0,12.0,95,0.02,,,0.25,,2013-03-16 20:52:00,
2013-03-16 21:01:00,42.0,41.0,29.27,WSW,243,6.0,14.0,95,0.02,,,0.25,,2013-03-16 21:01:00,
2013-03-16 21:12:00,42.0,41.0,29.27,WSW,243,6.0,14.0,95,0.02,,,0.25,,2013-03-16 21:12:00,
2013-03-16 21:22:00,42.0,41.0,29.27,SSW,212,6.0,16.0,95,0.02,,,0.25,,2013-03-16 21:22:00,
2013-03-16 21:32:00,42.0,40.0,29.27,SW,236,9.0,20.0,93,0.02,,,0.26,,2013-03-16 21:32:00,
2013-03-16 21:42:00,42.0,40.0,29.27,SW,236,9.0,20.0,93,0.02,,,0.26,,2013-03-16 21:42:00,
2013-03-16 21:52:00,41.0,39.0,29.26,WSW,237,6.0,16.0,94,0.02,,,0.27,,2013-03-16 21:52:00,
2013-03-16 22:03:00,41.0,39.0,29.26,WSW,237,6.0,16.0,94,0.02,,,0.27,,2013-03-16 22:03:00,
2013-03-16 22:12:00,41.0,39.0,29.26,WSW,237,6.0,16.0,94,0.02,,,0.27,,2013-03-16 22:12:00,
2013-03-16 22:22:00,41.0,40.0,29.26,WSW,251,3.0,6.0,96,0.02,,,0.27,,2013-03-16 22:22:00,
2013-03-16 22:33:00,41.0,40.0,29.26,WSW,251,3.0,6.0,96,0.02,,,0.27,,2013-03-16 22:33:00,
2013-03-16 22:42:00,41.0,40.0,29.26,WSW,251,3.0,6.0,96,0.02,,,0.27,,2013-03-16 22:42:00,
2013-03-16 22:52:00,41.0,40.0,29.27,WSW,252,9.0,14.0,95,0.01,,,0.26,,2013-03-16 22:52:00,
2013-03-16 23:02:00,41.0,39.0,29.27,WSW,252,9.0,14.0,94,0.01,,,0.26,,2013-03-16 23:02:00,
2013-03-16 23:12:00,41.0,39.0,29.27,WSW,252,9.0,14.0,94,0.01,,,0.26,,2013-03-16 23:12:00,
2013-03-16 23:22:00,41.0,39.0,29.27,WSW,252,9.0,24.0,93,0.00,,,0.26,,2013-03-16 23:22:00,
2013-03-16 23:32:00,41.0,39.0,29.28,WSW,252,6.0,26.0,92,0.00,,,0.26,,2013-03-16 23:32:00,
2013-03-16 23:42:00,41.0,39.0,29.28,WSW,252,6.0,26.0,92,0.00,,,0.26,,2013-03-16 23:42:00,
2013-03-16 23:52:00,41.0,39.0,29.28,WSW,252,6.0,26.0,92,0.00,,,0.26,,2013-03-16 23:52:00,